When you browse on this site, cookies collect data to enhance your experience and personalize the content and advertising you see.
Visit our Privacy Policy to learn more. By continuing to use the site, you agree to this use of cookies and data.
  • în România
  • Lista ţărilor
  • Pe 7 zile
  • Temperatura apei
  • Meteo pe hartă
  • Widget-uri
  • user-avatar
    Intrare

    Meteo pe oră la Nyiregyhaza

    Astăzi, 21 Octombrie, Luni

    Timp Temperatura Precipitaţii Vânt Presiune Umiditate
    00:00 +16°C° 0 mm 2 m/s 755 mmHg 68%
    01:00 +16°C° 0 mm 2 m/s 756 mmHg 71%
    02:00 +16°C° 0 mm 2 m/s 756 mmHg 72%
    03:00 +15°C° 0 mm 2 m/s 756 mmHg 73%
    04:00 +15°C° 0 mm 2 m/s 755 mmHg 74%
    05:00 +15°C° 0 mm 2 m/s 756 mmHg 74%
    06:00 +15°C° 0 mm 2 m/s 756 mmHg 74%
    07:00 +15°C° 0 mm 2 m/s 756 mmHg 74%
    08:00 +17°C° 0 mm 2 m/s 756 mmHg 66%
    09:00 +19°C° 0 mm 2 m/s 756 mmHg 58%
    10:00 +22°C° 0 mm 3 m/s 756 mmHg 51%
    11:00 +24°C° 0 mm 3 m/s 756 mmHg 47%
    12:00 +25°C° 0 mm 3 m/s 756 mmHg 43%
    13:00 +26°C° 0 mm 3 m/s 756 mmHg 40%
    14:00 +25°C° 0 mm 3 m/s 756 mmHg 42%
    15:00 +24°C° 0 mm 2 m/s 756 mmHg 45%
    16:00 +23°C° 0 mm 1 m/s 756 mmHg 48%
    17:00 +22°C° 0 mm 1 m/s 756 mmHg 50%
    18:00 +21°C° 0 mm 1 m/s 756 mmHg 53%
    19:00 +20°C° 0 mm 1 m/s 757 mmHg 55%
    20:00 +20°C° 0 mm 1 m/s 757 mmHg 57%
    21:00 +19°C° 0 mm 1 m/s 757 mmHg 58%
    22:00 +19°C° 0 mm 1 m/s 757 mmHg 60%
    23:00 +19°C° 0 mm 1 m/s 757 mmHg 61%

    Mâine, 22 Octombrie, Marţi

    Timp Temperatura Precipitaţii Vânt Presiune Umiditate
    00:00 +18°C° 0 mm 1 m/s 757 mmHg 63%
    01:00 +18°C° 0 mm 1 m/s 757 mmHg 64%
    02:00 +16°C° 0 mm 1 m/s 757 mmHg 65%
    03:00 +16°C° 0 mm 1 m/s 757 mmHg 67%
    04:00 +16°C° 0 mm 1 m/s 757 mmHg 68%
    05:00 +16°C° 0 mm 1 m/s 757 mmHg 68%
    06:00 +16°C° 0 mm 1 m/s 757 mmHg 69%
    07:00 +16°C° 0 mm 1 m/s 757 mmHg 69%
    08:00 +19°C° 0 mm 1 m/s 757 mmHg 62%
    09:00 +21°C° 0 mm 1 m/s 757 mmHg 56%
    10:00 +21°C° 0 mm 0 m/s 758 mmHg 49%
    11:00 +24°C° 0 mm 1 m/s 757 mmHg 47%
    12:00 +25°C° 0 mm 1 m/s 757 mmHg 44%
    13:00 +26°C° 0 mm 1 m/s 757 mmHg 41%
    14:00 +23°C° 0 mm 0 m/s 757 mmHg 44%
    15:00 +22°C° 0 mm 0 m/s 757 mmHg 47%
    16:00 +21°C° 0 mm 0 m/s 756 mmHg 51%
    17:00 +20°C° 0 mm 0 m/s 757 mmHg 53%
    18:00 +19°C° 0 mm 0 m/s 757 mmHg 55%
    19:00 +18°C° 0 mm 0 m/s 757 mmHg 58%
    20:00 +18°C° 0 mm 0 m/s 757 mmHg 59%
    21:00 +19°C° 0 mm 1 m/s 757 mmHg 61%
    22:00 +19°C° 0 mm 1 m/s 757 mmHg 63%
    23:00 +18°C° 0 mm 1 m/s 757 mmHg 64%

    Poimâine, 23 Octombrie, Miercuri

    Timp Temperatura Precipitaţii Vânt Presiune Umiditate
    00:00 +18°C° 0 mm 1 m/s 757 mmHg 66%
    01:00 +18°C° 0 mm 1 m/s 757 mmHg 67%
    02:00 +16°C° 0 mm 1 m/s 757 mmHg 69%
    03:00 +16°C° 0 mm 1 m/s 757 mmHg 71%
    04:00 +15°C° 0 mm 1 m/s 757 mmHg 73%
    05:00 +15°C° 0 mm 2 m/s 757 mmHg 73%
    06:00 +15°C° 0 mm 2 m/s 757 mmHg 74%
    07:00 +15°C° 0 mm 2 m/s 757 mmHg 74%
    08:00 +17°C° 0 mm 2 m/s 757 mmHg 68%
    09:00 +19°C° 0 mm 2 m/s 756 mmHg 61%
    10:00 +20°C° 0 mm 2 m/s 756 mmHg 55%
    11:00 +23°C° 0 mm 2 m/s 756 mmHg 52%
    12:00 +24°C° 0 mm 1 m/s 756 mmHg 48%
    13:00 +25°C° 0 mm 1 m/s 756 mmHg 45%
    14:00 +24°C° 0 mm 1 m/s 755 mmHg 48%
    15:00 +23°C° 0 mm 1 m/s 755 mmHg 51%
    16:00 +22°C° 0 mm 1 m/s 755 mmHg 55%
    17:00 +21°C° 0 mm 1 m/s 755 mmHg 57%
    18:00 +20°C° 0 mm 1 m/s 755 mmHg 60%
    19:00 +19°C° 0 mm 1 m/s 755 mmHg 63%
    20:00 +19°C° 0 mm 1 m/s 755 mmHg 64%
    21:00 +18°C° 0 mm 1 m/s 755 mmHg 66%
    22:00 +18°C° 0 mm 1 m/s 755 mmHg 67%
    23:00 +16°C° 0 mm 1 m/s 755 mmHg 69%

    24 Octombrie, Joi

    Timp Temperatura Precipitaţii Vânt Presiune Umiditate
    00:00 +16°C° 0 mm 1 m/s 755 mmHg 70%
    01:00 +16°C° 0 mm 1 m/s 755 mmHg 71%
    02:00 +15°C° 0 mm 1 m/s 755 mmHg 72%
    03:00 +15°C° 0 mm 1 m/s 754 mmHg 74%
    04:00 +15°C° 0 mm 1 m/s 754 mmHg 75%
    05:00 +15°C° 0 mm 1 m/s 754 mmHg 75%
    06:00 +15°C° 0 mm 1 m/s 754 mmHg 75%
    07:00 +15°C° 0 mm 1 m/s 754 mmHg 75%
    08:00 +18°C° 0 mm 1 m/s 754 mmHg 68%
    09:00 +20°C° 0 mm 1 m/s 754 mmHg 60%
    10:00 +20°C° 0 mm 0 m/s 754 mmHg 53%
    11:00 +21°C° 0 mm 0 m/s 754 mmHg 49%
    12:00 +22°C° 0 mm 0 m/s 753 mmHg 45%
    13:00 +25°C° 0 mm 1 m/s 753 mmHg 40%
    14:00 +24°C° 0 mm 1 m/s 753 mmHg 43%
    15:00 +21°C° 0 mm 0 m/s 753 mmHg 46%
    16:00 +20°C° 0 mm 0 m/s 752 mmHg 49%
    17:00 +21°C° 0 mm 1 m/s 753 mmHg 52%
    18:00 +20°C° 0 mm 1 m/s 753 mmHg 54%
    19:00 +19°C° 0 mm 1 m/s 753 mmHg 57%
    20:00 +19°C° 0 mm 1 m/s 753 mmHg 59%
    21:00 +18°C° 0 mm 1 m/s 753 mmHg 61%
    22:00 +18°C° 0 mm 1 m/s 753 mmHg 62%
    23:00 +16°C° 0 mm 1 m/s 753 mmHg 64%

    25 Octombrie, Vineri

    Timp Temperatura Precipitaţii Vânt Presiune Umiditate
    00:00 +16°C° 0 mm 1 m/s 753 mmHg 66%
    01:00 +15°C° 0 mm 1 m/s 754 mmHg 67%
    02:00 +15°C° 0 mm 1 m/s 754 mmHg 69%
    03:00 +15°C° 0 mm 1 m/s 754 mmHg 70%
    04:00 +14°C° 0 mm 1 m/s 754 mmHg 72%
    05:00 +14°C° 0 mm 1 m/s 754 mmHg 71%
    06:00 +14°C° 0 mm 1 m/s 754 mmHg 71%
    07:00 +14°C° 0 mm 1 m/s 754 mmHg 71%
    08:00 +16°C° 0 mm 1 m/s 754 mmHg 64%
    09:00 +19°C° 0 mm 1 m/s 755 mmHg 57%
    10:00 +21°C° 0 mm 1 m/s 755 mmHg 50%
    11:00 +22°C° 0 mm 1 m/s 755 mmHg 47%
    12:00 +23°C° 0 mm 1 m/s 755 mmHg 44%
    13:00 +24°C° 0 mm 1 m/s 755 mmHg 41%
    14:00 +23°C° 0 mm 1 m/s 755 mmHg 44%
    15:00 +22°C° 0 mm 1 m/s 755 mmHg 48%
    16:00 +21°C° 0 mm 1 m/s 755 mmHg 51%
    17:00 +20°C° 0 mm 1 m/s 755 mmHg 54%
    18:00 +19°C° 0 mm 1 m/s 755 mmHg 57%
    19:00 +18°C° 0 mm 1 m/s 755 mmHg 59%
    20:00 +17°C° 0 mm 2 m/s 756 mmHg 62%
    21:00 +16°C° 0 mm 2 m/s 756 mmHg 64%
    22:00 +15°C° 0 mm 2 m/s 756 mmHg 66%
    23:00 +15°C° 0 mm 2 m/s 756 mmHg 70%

    26 Octombrie, Sâmbătă

    Timp Temperatura Precipitaţii Vânt Presiune Umiditate
    00:00 +14°C° 0 mm 2 m/s 756 mmHg 74%
    01:00 +14°C° 0 mm 2 m/s 756 mmHg 77%
    02:00 +13°C° 0 mm 2 m/s 756 mmHg 81%
    03:00 +13°C° 0 mm 2 m/s 756 mmHg 85%
    04:00 +13°C° 0 mm 2 m/s 756 mmHg 88%
    05:00 +13°C° 0 mm 2 m/s 756 mmHg 88%
    06:00 +13°C° 0 mm 2 m/s 756 mmHg 88%
    07:00 +13°C° 0 mm 2 m/s 757 mmHg 87%
    08:00 +14°C° 0 mm 2 m/s 757 mmHg 79%
    09:00 +16°C° 0 mm 2 m/s 757 mmHg 70%
    10:00 +18°C° 0 mm 2 m/s 757 mmHg 61%
    11:00 +20°C° 0 mm 1 m/s 756 mmHg 57%
    12:00 +21°C° 0 mm 1 m/s 756 mmHg 53%
    13:00 +22°C° 0 mm 1 m/s 756 mmHg 49%
    14:00 +21°C° 0 mm 1 m/s 755 mmHg 52%
    15:00 +20°C° 0 mm 1 m/s 755 mmHg 55%
    16:00 +20°C° 0 mm 1 m/s 755 mmHg 59%
    17:00 +17°C° 0 mm 0 m/s 755 mmHg 62%
    18:00 +16°C° 0 mm 0 m/s 755 mmHg 65%
    19:00 +15°C° 0 mm 0 m/s 755 mmHg 68%
    20:00 +14°C° 0 mm 0 m/s 755 mmHg 70%
    21:00 +14°C° 0 mm 0 m/s 755 mmHg 71%
    22:00 +14°C° 0 mm 0 m/s 755 mmHg 73%
    23:00 +13°C° 0 mm 0 m/s 755 mmHg 75%

    27 Octombrie, Duminică

    Timp Temperatura Precipitaţii Vânt Presiune Umiditate
    00:00 +13°C° 0 mm 0 m/s 755 mmHg 76%
    01:00 +12°C° 0 mm 0 m/s 755 mmHg 78%
    02:00 +12°C° 0 mm 0 m/s 755 mmHg 79%
    03:00 +12°C° 0 mm 0 m/s 755 mmHg 80%
    04:00 +11°C° 0 mm 0 m/s 755 mmHg 81%
    05:00 +11°C° 0 mm 0 m/s 755 mmHg 81%
    06:00 +11°C° 0 mm 0 m/s 755 mmHg 81%
    07:00 +12°C° 0 mm 1 m/s 755 mmHg 80%
    08:00 +14°C° 0 mm 1 m/s 755 mmHg 74%
    09:00 +15°C° 0 mm 0 m/s 755 mmHg 67%
    10:00 +17°C° 0 mm 0 m/s 756 mmHg 60%
    11:00 +18°C° 0 mm 0 m/s 755 mmHg 57%
    12:00 +18°C° 0 mm 0 m/s 755 mmHg 53%
    13:00 +19°C° 0 mm 0 m/s 755 mmHg 50%
    14:00 +20°C° 0 mm 1 m/s 755 mmHg 53%
    15:00 +20°C° 0 mm 1 m/s 755 mmHg 56%
    16:00 +19°C° 0 mm 1 m/s 755 mmHg 60%
    17:00 +18°C° 0 mm 1 m/s 755 mmHg 63%
    18:00 +16°C° 0 mm 2 m/s 755 mmHg 66%
    19:00 +15°C° 0 mm 2 m/s 755 mmHg 69%
    20:00 +15°C° 0 mm 2 m/s 756 mmHg 71%
    21:00 +14°C° 0 mm 3 m/s 756 mmHg 74%
    22:00 +14°C° 0 mm 3 m/s 756 mmHg 76%
    23:00 +13°C° 0 mm 3 m/s 756 mmHg 78%
    Arată mai mult